Flag for U.S.A. Weather past 2 weeks in Fort Wayne, Indiana, U.S.A.

Now
29 °F

Passing clouds.


Feels Like: 23 °F
Forecast: 31 / 61 °F
Wind: 6 mph from East

Location: Fort Wayne International Airport


UV Index: 3 (Moderate)

Visibility: 10 mi


Pressure: 30.28 "Hg

Humidity: 79%

Dew point: 23 °F

Location of Fort WayneLocation

Historic Weather in Fort Wayne

°F

Fort Wayne temperature yesterday

Maximum temperature yesterday: 48 °F (at 5:54 PM)
Minimum temperature yesterday: 23 °F (at 4:54 AM)
Average temperature yesterday: 36 °F

Past Weeks' High & Low Weather Summary

 TemperatureHumidityPressure
High76 °F (Apr 12, 3:54 PM)100% (Apr 4, 2:54 AM)30.45 "Hg (Apr 4, 2:54 AM)
Low23 °F (Apr 16, 4:54 AM)25% (Apr 11, 6:54 PM)29.46 "Hg (Apr 14, 5:54 AM)
Average46 °F66%29.94 "Hg
* Reported Apr 2 4:54 AM — Apr 17 4:54 AM, Fort Wayne, Weather by CustomWeather, © 2014

Note: Actual official high and low records may vary slightly from our data, if they occured in-between our weather recording intervals... More about our weather records

Advertising

Historic Weather Conditions — Data for Previous 24 hours

 ConditionsComfort  
Time TempWeatherWind HumidityBarometerVisibility
4:54 AM
Apr 17
29 °FPassing clouds.6 mph79%30.29 "Hg10 mi
3:54 AM31 °FPassing clouds.6 mph76%30.29 "Hg10 mi
2:54 AM34 °FPassing clouds.8 mph70%30.29 "Hg10 mi
1:54 AM36 °FPassing clouds.10 mph67%30.29 "Hg10 mi
12:54 AM37 °FPassing clouds.12 mph65%30.30 "Hg10 mi
11:54 PM
Apr 16
37 °FPassing clouds.9 mph65%30.31 "Hg10 mi
10:54 PM40 °FPassing clouds.10 mph53%30.31 "Hg10 mi
9:54 PM40 °FPassing clouds.10 mph58%30.30 "Hg10 mi
8:54 PM42 °FPartly sunny.9 mph49%30.30 "Hg10 mi
7:54 PM45 °FPartly sunny.14 mph42%30.29 "Hg10 mi
6:54 PM47 °FScattered clouds.14 mph37%30.30 "Hg10 mi
5:54 PM48 °FScattered clouds.16 mph36%30.31 "Hg10 mi
4:54 PM47 °FPartly sunny.14 mph36%30.33 "Hg10 mi
3:54 PM47 °FPartly sunny.16 mph34%30.35 "Hg10 mi
2:54 PM45 °FPartly sunny.14 mph37%30.38 "Hg10 mi
1:54 PM44 °FScattered clouds.14 mph37%30.40 "Hg10 mi
12:54 PM42 °FScattered clouds.16 mph39%30.43 "Hg10 mi
11:54 AM39 °FPassing clouds.13 mph41%30.44 "Hg10 mi
10:54 AM38 °FSunny.13 mph43%30.45 "Hg10 mi
9:54 AM35 °FScattered clouds.13 mph48%30.44 "Hg10 mi
8:54 AM31 °FPassing clouds.8 mph59%30.43 "Hg10 mi
7:54 AM26 °FPassing clouds.7 mph69%30.41 "Hg10 mi
6:54 AM24 °FPassing clouds.7 mph68%30.39 "Hg10 mi
Weather by CustomWeather, © 2014

See weather overview